Location: Bois de la Silve
(44.4667°N, 6.7833°E)
Time: 04:21:52
(UTC+00:00)

CZ-4C R/B - Pass Details

Date: 14 July 2020
Orbit: 632 x 1370 km, 63.4° (Epoch: 06 August)

Event Time Altitude Azimuth Distance (km) Brightness Sun altitude
Rises 00:16:26 0° 313° (NW) 3,975 6.1 -23.3°
Reaches altitude 10° 00:19:29 10° 301° (WNW) 3,119 5.4 -23.2°
Maximum altitude 00:25:31 26° 249° (WSW) 2,285 4.1 -23.0°
Enters shadow 00:26:33 26° 237° (WSW) 2,337 4.1 -23.0°
